Location: Sweet Grass
(48.9965°N, 111.9649°W)
Time: 18:00:50
(UTC+00:00)

DX 1 - Pass Details

Date: 04 April 2023
Orbit: 615 x 625 km, 98.4° (Epoch: 04 June)

Event Time Altitude Azimuth Distance (km) Brightness Sun altitude
Rises 06:08:49 0° 12° (NNE) 2,899 ? -32.5°
Reaches altitude 10° 06:11:01 10° 11° (N) 1,989 ? -32.7°
Enters shadow 06:12:40 23° 7° (N) 1,332 ? -32.8°
